SCP
0 0 0 -0 0 0 0 0 0 0 0 0 0 0 0 0 0 0 0 0 -0 -0 -0 -0 -0 -0 -0 -0 -0 -0 -0 -0 -0 -0 0 0 0 0 0 0 0 0 0 0 0 0 0 0 0
0 0 -0 0 0 0 0 -0 0 0 0 0 0 0 0 0 0 0 0 0 0 -0 -0 -0 -0 -0 -1 -1 -1 -0 -0 -0 -0 -0 -0 -0 0 0 0 0 0 0 0 0 0 0 0 0 0
-0 -0 -0 0 0 0 0 0 0 0 0 0 0 0 0 0 0 0 0 -0 0 0 -0 -0 -0 -0 -0 -1 -1 -0 -0 -0 -0 -0 -0 -0 -0 0 0 0 0 0 0 0 0 0 0 0 0
-0 -0 0 0 0 0 0 0 0 0 0 0 0 0 0 0 0 0 0 0 -0 0 -0 -0 -0 -0 -0 -0 -0 -0 -0 -0 -0 -0 -0 -0 -0 -0 0 0 0 0 0 0 0 0 0 0 0
-0 0 0 0 0 0 0 0 0 0 0 0 0 0 0 0 0 0 0 0 0 0 0 -0 -0 -0 -1 -0 -0 0 0 -0 -0 -0 -0 -0 -0 -0 0 0 0 0 0 0 0 0 0 0 0
0 0 0 0 0 0 0 0 0 0 0 0 0 0 0 0 0 0 0 0 0 0 0 -0 -0 -0 -0 -0 -0 -0 0 0 0 0 -0 -0 -0 0 0 0 0 0 0 0 0 0 0 0 0
0 0 0 0 0 0 0 0 0 0 0 0 0 0 0 0 0 0 0 0 0 0 0 0 0 0 0 0 -0 -0 -0 0 0 0 0 0 0 0 0 0 0 0 0 0 0 0 0 0 0
0 0 0 0 0 0 0 0 0 0 0 0 0 0 0 0 0 0 0 0 0 0 0 0 0 0 0 0 0 -0 0 0 0 0 0 0 0 0 0 0 0 0 0 0 0 0 0 0 0
0 0 0 0 0 0 0 0 0 0 0 0 0 0 0 0 0 0 0 0 0 0 0 0 0 0 0 0 0 0 0 0 0 0 0 0 0 0 0 0 0 0 0 0 0 0 0 0 0
0 0 0 0 0 0 0 0 0 0 0 0 0 0 0 0 0 0 0 0 0 0 0 0 0 0 0 0 0 0 0 0 0 0 0 0 0 0 0 0 0 0 0 0 0 0 0 0 0
0 0 0 0 0 0 0 0 0 0 0 0 0 0 0 0 0 0 0 0 0 0 0 0 0 0 0 0 0 0 0 0 0 0 0 0 0 0 0 0 0 0 0 0 0 0 0 0 0
0 0 0 0 0 0 0 0 0 0 0 0 0 0 0 0 0 0 0 0 0 0 0 0 0 0 0 0 0 0 0 0 0 0 0 0 0 0 0 0 0 0 0 0 0 0 0 0 0
0 0 0 0 0 0 0 0 0 0 0 0 0 0 0 0 0 0 0 0 0 0 0 0 0 0 0 0 0 0 0 0 0 0 0 0 0 0 0 0 0 0 0 0 0 0 0 0 0
0 0 0 0 0 0 0 0 0 0 0 0 0 0 0 0 0 0 0 0 0 0 0 0 0 0 0 0 0 0 0 0 0 0 0 0 0 0 0 0 0 0 0 0 0 0 0 0 0
0 0 0 0 0 0 0 0 0 0 0 0 0 0 0 0 0 0 0 0 0 0 0 0 0 0 0 0 0 0 0 0 0 0 0 0 0 0 0 0 0 0 0 0 0 0 0 0 0
0 0 0 0 0 0 0 0 0 0 0 0 0 0 0 0 0 0 0 0 0 0 0 0 0 0 0 0 0 0 0 0 0 0 0 0 0 0 0 0 0 0 0 0 0 0 0 0 0
0 0 0 0 0 0 0 0 0 0 0 0 0 0 0 0 0 0 0 0 0 0 0 0 0 0 0 0 0 0 0 0 0 0 0 0 0 0 0 0 0 0 0 0 0 0 0 0 0
0 0 0 0 0 0 0 0 0 0 0 0 0 0 0 0 0 0 0 0 0 0 0 0 0 0 0 0 0 0 0 0 0 0 0 0 0 0 0 0 0 0 0 0 0 0 0 0 0
0 0 0 0 0 0 0 0 0 0 0 0 0 0 0 0 0 0 0 0 0 0 0 0 0 0 0 0 0 0 0 0 0 0 0 0 0 0 0 0 0 0 0 0 0 0 0 0 0
0 0 0 0 0 0 0 0 0 0 0 0 0 0 0 0 0 0 0 0 0 0 0 0 0 0 0 0 0 0 0 0 0 0 0 0 0 0 0 0 0 0 0 0 0 0 0 0 0
0 0 0 0 0 0 0 0 0 0 0 0 0 0 0 0 0 0 0 0 0 0 0 0 0 0 0 0 0 0 0 0 0 0 0 0 0 0 0 0 0 0 0 0 0 0 0 0 0
0 0 0 0 0 0 0 0 0 0 0 0 0 0 0 0 0 0 0 0 0 0 0 0 0 0 0 0 0 0 0 0 0 0 0 0 0 0 0 0 0 0 0 0 0 0 0 0 0
0 0 0 0 0 0 0 0 0 0 0 0 0 0 0 0 0 0 0 0 0 0 0 0 0 0 0 0 0 0 0 0 0 0 0 0 0 0 0 0 0 0 0 0 0 0 0 0 0
0 0 0 0 0 0 0 0 0 0 0 0 0 0 0 0 0 0 0 0 0 0 0 0 0 0 0 0 0 0 0 0 0 0 0 0 0 0 0 0 0 0 0 0 0 0 0 0 0
0 0 0 0 0 0 0 0 0 0 0 0 0 0 0 0 0 0 0 0 0 0 0 0 0 0 0 0 0 0 0 0 0 0 0 0 0 0 0 0 0 0 0 0 0 0 0 0 0
0 0 0 0 0 0 0 0 0 0 0 0 0 0 0 0 0 0 0 0 0 0 0 0 0 0 0 0 0 0 0 0 0 0 0 0 0 0 0 0 0 0 0 0 0 0 0 0 0
0 0 0 0 0 0 0 0 0 0 0 0 0 0 0 0 0 0 0 0 0 -0 -0 -0 -0 -0 -0 0 0 0 0 0 0 0 0 0 0 0 0 0 0 0 0 0 0 0 0 0 0
0 0 0 0 0 0 0 0 0 0 0 0 0 0 0 0 0 0 0 0 -0 -0 -0 -0 -0 0 0 0 0 0 0 0 0 0 0 0 0 0 0 0 0 0 0 0 0 0 0 0 0
0 0 0 0 0 0 0 0 0 0 0 0 0 0 0 0 0 0 0 -0 -0 -0 0 0 0 0 0 0 0 0 0 0 0 0 0 0 0 0 0 0 0 0 0 0 0 0 0 0 0
0 0 0 0 0 0 0 0 0 0 0 0 0 0 0 0 0 0 0 0 0 0 0 0 0 0 0 0 0 0 0 0 0 0 0 0 0 0 0 0 0 0 0 0 -0 0 0 0 0
Wind_Speed_500mb
11 8 6 2 8 10 4 3 2 3 4 2 2 2 3 3 5 6 2 4 4 17 26 40 42 40 38 36 32 30 27 24 22 20 17 16 15 14 14 14 13 13 9 6 2 3 3 4 4
7 4 4 5 10 7 8 8 3 5 5 2 1 2 2 0 1 3 4 3 2 10 22 39 41 40 39 37 34 31 28 25 23 21 21 24 19 16 16 16 17 14 10 6 5 2 2 2 3
4 5 4 8 7 7 7 6 6 3 5 1 2 2 2 4 3 2 4 4 6 11 16 33 41 42 40 37 35 33 30 28 26 23 24 14 14 18 19 20 21 19 13 9 8 6 6 6 7
2 4 8 8 2 7 9 9 7 5 2 3 2 4 3 6 3 4 4 6 8 13 16 28 40 42 42 41 38 36 33 30 25 29 30 24 21 22 24 25 25 25 19 13 13 11 10 8 10
8 6 8 5 7 8 4 7 6 2 1 5 2 3 8 9 9 3 0 6 8 15 19 25 35 43 44 42 40 38 36 34 33 33 30 29 27 27 27 30 31 28 22 17 15 13 11 11 12
5 5 9 1 8 10 4 1 7 4 7 1 2 7 5 6 10 7 1 5 8 13 18 24 29 39 44 45 44 41 39 39 36 31 29 28 30 29 26 25 27 27 19 18 16 14 14 10 10
8 7 6 5 6 9 4 1 6 5 1 1 1 2 10 10 10 13 12 11 13 15 19 23 29 33 42 45 45 45 44 42 37 34 33 33 33 32 24 18 26 25 22 21 16 15 15 14 14
3 9 1 5 5 4 16 17 7 7 5 6 2 5 8 16 23 20 19 17 19 20 22 25 29 34 38 44 48 48 47 46 44 41 38 36 38 34 27 16 25 26 24 22 17 16 16 17 16
1 8 2 6 2 8 21 12 11 15 13 15 12 20 25 36 27 30 28 26 25 25 28 30 33 35 39 42 45 49 50 48 46 44 44 43 44 40 31 26 23 27 26 24 20 19 19 19 18
6 7 12 9 8 5 12 6 26 7 26 40 44 36 27 31 26 31 34 39 44 38 34 34 38 38 39 44 46 51 51 51 51 47 47 49 47 46 38 35 30 29 30 28 24 23 24 23 21
9 10 8 9 8 9 15 25 9 3 13 50 52 50 43 38 38 37 41 47 49 44 36 37 36 39 42 43 47 52 55 54 52 49 51 50 50 51 48 43 39 35 33 32 30 27 28 26 25
5 19 23 14 27 16 8 12 20 21 44 48 49 37 32 30 41 49 51 35 40 40 39 36 33 35 35 40 44 48 55 56 56 56 54 52 53 53 52 49 45 41 37 34 35 31 33 31 30
6 8 16 20 31 31 29 29 26 52 45 32 36 23 26 26 22 27 25 31 34 37 41 38 35 33 35 36 38 44 49 51 54 56 58 56 59 55 51 52 51 46 43 39 38 36 38 37 35
1 9 24 26 45 34 19 15 5 26 23 28 23 26 31 27 22 22 30 32 33 37 40 37 41 33 33 37 36 36 41 43 43 44 46 50 54 55 55 53 50 46 46 44 43 41 42 42 42
7 9 15 25 11 9 3 5 13 26 36 37 29 28 19 17 16 18 12 14 23 33 37 36 33 30 29 35 35 34 35 39 43 41 40 43 48 50 56 59 56 43 44 48 48 48 47 49 49
6 4 6 7 2 2 12 14 19 25 39 39 34 13 10 11 11 8 9 9 10 14 28 33 30 24 22 27 31 33 33 38 41 41 39 41 50 53 55 57 57 49 49 50 51 51 49 48 51
7 6 9 15 3 5 6 12 22 45 38 41 13 5 12 16 15 12 10 11 10 9 5 16 24 23 19 23 34 34 32 31 36 35 38 39 40 40 45 47 50 51 51 50 51 52 51 50 51
11 9 9 11 8 6 9 17 27 43 40 28 14 21 26 28 29 20 13 7 2 1 3 12 20 20 18 22 27 28 28 28 28 27 28 31 34 37 40 41 42 44 46 48 51 52 54 55 53
5 7 12 9 13 5 12 13 28 22 5 29 34 36 37 39 36 34 32 26 17 9 11 13 11 12 11 16 19 19 20 21 19 22 24 26 29 32 36 37 39 43 46 47 48 51 54 56 55
9 8 13 14 10 3 11 24 6 21 15 25 35 36 39 43 44 48 51 51 50 42 33 20 12 5 3 5 8 11 17 19 20 19 19 22 25 28 33 35 38 41 43 45 48 51 55 55 56
12 11 9 16 9 5 7 15 4 12 28 35 37 38 41 45 46 48 51 55 54 55 50 44 36 27 19 10 5 5 9 10 12 15 17 17 18 21 22 25 31 39 42 44 45 49 53 54 55
13 11 12 6 5 7 4 9 10 9 11 21 33 38 38 39 41 43 46 51 54 55 51 50 45 41 35 27 20 14 7 4 7 4 4 13 19 18 18 19 22 30 37 40 42 43 49 53 55
14 4 3 3 5 5 6 1 12 14 10 9 21 32 33 34 35 40 43 43 43 41 43 42 40 39 39 36 34 28 23 21 16 10 8 9 13 19 22 25 29 32 35 34 36 39 44 50 56
6 7 13 9 5 3 15 14 9 11 12 14 24 31 30 29 31 35 36 35 37 35 35 33 31 32 32 33 32 29 27 26 21 22 21 19 17 16 16 18 21 24 29 34 36 40 43 48 53
8 10 6 6 4 10 7 6 11 15 1 32 36 36 30 27 28 29 29 29 28 25 23 21 19 19 21 21 21 24 25 25 26 26 25 23 24 25 27 28 29 28 28 30 34 37 38 44 53
10 15 9 12 6 7 8 11 6 8 27 45 40 34 27 23 20 19 19 18 17 13 13 11 12 15 18 21 23 24 23 26 30 30 29 28 28 31 31 32 32 34 36 35 33 35 39 44 47
8 8 6 10 4 5 8 2 2 8 12 28 35 29 23 19 11 4 6 7 9 8 8 11 13 12 12 17 21 24 25 26 28 30 35 38 36 32 29 28 33 39 39 40 40 39 39 42 46
9 11 6 4 3 11 9 10 9 15 17 13 20 30 26 19 14 10 8 7 5 4 4 6 10 15 18 18 18 22 26 27 29 33 36 41 45 46 44 44 46 48 46 45 46 47 46 45 48
2 5 3 6 10 10 4 10 5 20 28 26 34 34 32 25 21 19 16 10 8 1 5 6 6 5 7 11 16 19 23 30 31 35 39 43 48 51 54 55 55 57 58 57 54 52 52 54 55
5 13 13 11 11 7 4 17 4 16 34 43 43 35 31 31 28 28 21 15 11 7 4 4 5 9 12 14 17 21 25 31 36 41 44 46 50 51 56 58 61 67 69 71 71 73 67 65 65
Wind_Direction_500mb
336 306 311 65 55 64 297 289 153 67 4 172 310 58 181 233 164 213 192 235 157 168 180 187 194 198 200 203 204 202 201 202 201 201 206 206 202 203 206 214 229 239 253 242 237 32 75 100 104
344 356 54 72 82 69 286 273 160 208 189 108 87 98 10 14 148 205 166 269 234 164 189 190 197 202 204 207 208 208 211 211 211 210 218 221 214 220 228 238 252 261 250 224 227 268 255 242 217
13 27 39 87 108 161 178 228 208 279 147 116 42 267 293 205 210 190 264 237 244 199 188 199 202 205 209 213 215 216 217 216 216 219 211 215 210 214 231 248 259 265 268 252 252 261 264 257 240
266 38 58 78 213 250 186 206 209 146 136 147 100 347 296 251 246 317 301 280 234 225 209 200 206 210 211 214 218 221 222 220 213 210 226 234 236 235 240 245 250 262 266 252 256 262 264 261 250
32 51 50 43 282 279 298 146 124 64 292 222 189 264 275 241 235 164 307 316 272 233 223 211 210 212 216 219 220 220 223 223 212 213 219 230 241 247 251 249 248 253 259 259 265 271 269 259 241
61 60 56 343 287 292 304 299 106 38 10 9 287 294 286 250 214 219 199 305 291 252 237 227 219 219 220 221 222 223 223 223 227 219 219 230 246 253 261 250 236 246 248 256 267 269 264 244 224
96 80 187 227 265 321 262 38 123 162 22 93 138 279 291 278 260 257 253 299 287 257 246 238 231 226 225 227 226 226 227 229 229 229 232 248 251 256 255 247 233 243 249 255 253 244 235 218 217
77 96 47 268 312 325 353 335 334 337 313 155 212 247 290 325 308 280 264 273 282 275 261 249 241 235 232 227 228 230 230 231 232 233 237 242 253 258 264 277 260 252 256 259 251 243 224 221 223
164 60 229 237 47 295 336 5 341 329 295 293 266 281 298 299 303 283 274 285 281 276 278 263 249 243 239 236 233 230 230 232 234 234 234 238 244 252 259 268 275 266 263 262 254 243 229 229 231
106 117 227 203 160 269 293 272 309 313 305 293 294 302 303 301 308 310 285 293 290 280 287 283 261 251 245 241 238 235 232 232 232 231 232 237 240 252 258 262 266 269 266 260 250 239 233 235 239
170 190 216 266 260 286 299 302 284 268 292 296 304 315 309 299 295 291 289 287 286 287 272 278 273 260 253 247 242 238 233 233 236 232 233 239 241 249 254 257 263 270 266 261 255 242 238 240 243
168 247 245 268 289 299 286 295 300 261 277 306 312 317 321 304 295 295 295 298 291 285 283 274 271 260 255 255 249 242 237 236 239 241 240 238 238 244 250 256 262 266 270 264 257 247 241 243 247
212 283 271 268 285 287 283 267 272 281 292 301 316 344 14 5 337 311 297 302 284 268 270 272 263 269 260 257 259 250 241 239 241 241 242 242 247 244 250 257 259 262 266 265 261 253 247 246 247
245 303 293 290 281 283 260 285 327 284 306 310 314 345 345 352 340 304 283 288 288 275 272 267 252 267 267 259 262 265 255 248 245 245 247 245 244 246 248 257 265 263 264 265 261 257 249 248 248
317 315 315 281 274 225 183 315 228 301 303 294 310 341 348 348 323 338 340 306 285 275 268 256 244 255 270 260 261 266 269 258 254 254 256 251 255 248 253 256 260 270 270 267 260 256 251 246 246
324 29 326 273 138 181 149 249 272 296 297 296 329 6 47 47 41 16 349 10 7 282 262 248 230 230 257 255 252 260 265 264 258 254 256 253 258 257 250 259 258 281 275 268 260 258 256 253 251
346 230 212 306 255 126 193 252 267 289 297 297 345 79 71 78 63 40 6 356 4 357 294 218 209 209 209 228 240 245 253 259 259 255 258 255 254 258 252 259 264 272 275 270 267 264 262 260 258
215 214 239 232 267 30 256 249 261 279 298 316 158 105 87 78 63 56 48 32 25 203 188 195 201 210 200 210 227 240 247 246 243 252 259 265 264 264 262 264 269 267 270 271 270 269 267 267 267
176 214 240 258 257 225 258 277 290 341 264 115 117 109 97 84 77 71 66 64 71 109 122 118 150 158 177 194 213 227 242 243 242 241 249 259 265 269 271 272 270 267 272 274 277 275 271 268 268
238 247 259 272 260 190 292 292 40 26 42 102 112 99 94 90 82 76 73 71 68 70 73 77 85 105 180 216 220 220 225 226 230 238 243 255 261 268 273 275 275 273 273 275 275 275 273 271 268
220 202 235 234 344 295 330 293 184 60 77 79 86 93 89 85 80 75 72 69 69 66 64 65 67 72 79 86 108 174 203 209 217 226 239 249 254 255 265 269 273 273 273 273 276 277 278 278 274
277 208 228 187 113 228 44 278 304 148 84 68 88 91 91 89 82 76 70 65 59 55 52 52 54 56 57 55 62 77 91 58 44 14 268 265 276 279 273 257 263 274 275 274 274 274 273 275 274
230 99 131 169 172 74 295 299 259 132 149 131 109 108 103 93 85 76 69 65 63 57 49 44 41 43 44 46 50 53 58 54 41 16 320 304 295 290 290 285 279 273 270 275 277 272 268 269 272
111 51 37 48 101 282 215 180 263 188 183 148 142 131 119 107 96 85 79 72 63 56 49 45 39 39 37 33 33 31 32 37 36 40 28 17 2 345 329 315 304 298 292 289 282 270 268 268 267
87 70 309 335 0 231 139 145 254 321 345 155 152 142 129 117 105 97 83 66 53 42 36 27 24 31 37 36 38 38 35 30 23 20 17 6 9 9 4 355 348 335 318 306 298 293 284 272 270
173 165 165 222 215 268 328 239 290 11 90 129 137 135 133 127 112 90 55 48 35 39 28 22 21 16 22 23 27 28 22 22 25 21 13 5 6 3 355 353 348 339 335 333 328 311 302 292 281
186 176 170 106 351 283 247 62 52 74 82 129 141 147 154 151 139 70 28 17 26 36 49 59 50 59 38 28 20 13 14 12 10 4 1 355 349 346 348 344 337 330 328 327 326 329 325 315 304
151 167 81 8 171 241 272 264 207 187 179 172 170 182 179 186 213 239 253 279 316 352 33 57 59 37 34 32 21 14 4 359 357 351 346 342 339 337 336 332 330 329 325 319 316 314 315 316 315
130 196 177 170 155 180 252 257 219 175 180 183 196 198 201 216 227 237 246 265 291 261 107 94 72 53 15 355 348 342 341 338 343 336 335 332 329 330 330 329 326 321 318 318 318 313 310 306 304
216 191 168 195 223 240 169 263 336 182 175 178 195 213 225 233 226 225 230 236 248 225 176 112 44 18 6 358 354 344 336 334 332 330 330 325 322 324 322 318 316 314 313 312 312 311 309 307 304
Wind_Speed_850mb
11 8 6 2 8 10 4 3 2 3 4 2 2 2 3 3 5 6 2 4 4 17 26 40 42 40 38 36 32 30 27 24 22 20 17 16 15 14 14 14 13 13 9 6 2 3 3 4 4
7 4 4 5 10 7 8 8 3 5 5 2 1 2 2 0 1 3 4 3 2 10 22 39 41 40 39 37 34 31 28 25 23 21 21 24 19 16 16 16 17 14 10 6 5 2 2 2 3
4 5 4 8 7 7 7 6 6 3 5 1 2 2 2 4 3 2 4 4 6 11 16 33 41 42 40 37 35 33 30 28 26 23 24 14 14 18 19 20 21 19 13 9 8 6 6 6 7
2 4 8 8 2 7 9 9 7 5 2 3 2 4 3 6 3 4 4 6 8 13 16 28 40 42 42 41 38 36 33 30 25 29 30 24 21 22 24 25 25 25 19 13 13 11 10 8 10
8 6 8 5 7 8 4 7 6 2 1 5 2 3 8 9 9 3 0 6 8 15 19 25 35 43 44 42 40 38 36 34 33 33 30 29 27 27 27 30 31 28 22 17 15 13 11 11 12
5 5 9 1 8 10 4 1 7 4 7 1 2 7 5 6 10 7 1 5 8 13 18 24 29 39 44 45 44 41 39 39 36 31 29 28 30 29 26 25 27 27 19 18 16 14 14 10 10
8 7 6 5 6 9 4 1 6 5 1 1 1 2 10 10 10 13 12 11 13 15 19 23 29 33 42 45 45 45 44 42 37 34 33 33 33 32 24 18 26 25 22 21 16 15 15 14 14
3 9 1 5 5 4 16 17 7 7 5 6 2 5 8 16 23 20 19 17 19 20 22 25 29 34 38 44 48 48 47 46 44 41 38 36 38 34 27 16 25 26 24 22 17 16 16 17 16
1 8 2 6 2 8 21 12 11 15 13 15 12 20 25 36 27 30 28 26 25 25 28 30 33 35 39 42 45 49 50 48 46 44 44 43 44 40 31 26 23 27 26 24 20 19 19 19 18
6 7 12 9 8 5 12 6 26 7 26 40 44 36 27 31 26 31 34 39 44 38 34 34 38 38 39 44 46 51 51 51 51 47 47 49 47 46 38 35 30 29 30 28 24 23 24 23 21
9 10 8 9 8 9 15 25 9 3 13 50 52 50 43 38 38 37 41 47 49 44 36 37 36 39 42 43 47 52 55 54 52 49 51 50 50 51 48 43 39 35 33 32 30 27 28 26 25
5 19 23 14 27 16 8 12 20 21 44 48 49 37 32 30 41 49 51 35 40 40 39 36 33 35 35 40 44 48 55 56 56 56 54 52 53 53 52 49 45 41 37 34 35 31 33 31 30
6 8 16 20 31 31 29 29 26 52 45 32 36 23 26 26 22 27 25 31 34 37 41 38 35 33 35 36 38 44 49 51 54 56 58 56 59 55 51 52 51 46 43 39 38 36 38 37 35
1 9 24 26 45 34 19 15 5 26 23 28 23 26 31 27 22 22 30 32 33 37 40 37 41 33 33 37 36 36 41 43 43 44 46 50 54 55 55 53 50 46 46 44 43 41 42 42 42
7 9 15 25 11 9 3 5 13 26 36 37 29 28 19 17 16 18 12 14 23 33 37 36 33 30 29 35 35 34 35 39 43 41 40 43 48 50 56 59 56 43 44 48 48 48 47 49 49
6 4 6 7 2 2 12 14 19 25 39 39 34 13 10 11 11 8 9 9 10 14 28 33 30 24 22 27 31 33 33 38 41 41 39 41 50 53 55 57 57 49 49 50 51 51 49 48 51
7 6 9 15 3 5 6 12 22 45 38 41 13 5 12 16 15 12 10 11 10 9 5 16 24 23 19 23 34 34 32 31 36 35 38 39 40 40 45 47 50 51 51 50 51 52 51 50 51
11 9 9 11 8 6 9 17 27 43 40 28 14 21 26 28 29 20 13 7 2 1 3 12 20 20 18 22 27 28 28 28 28 27 28 31 34 37 40 41 42 44 46 48 51 52 54 55 53
5 7 12 9 13 5 12 13 28 22 5 29 34 36 37 39 36 34 32 26 17 9 11 13 11 12 11 16 19 19 20 21 19 22 24 26 29 32 36 37 39 43 46 47 48 51 54 56 55
9 8 13 14 10 3 11 24 6 21 15 25 35 36 39 43 44 48 51 51 50 42 33 20 12 5 3 5 8 11 17 19 20 19 19 22 25 28 33 35 38 41 43 45 48 51 55 55 56
12 11 9 16 9 5 7 15 4 12 28 35 37 38 41 45 46 48 51 55 54 55 50 44 36 27 19 10 5 5 9 10 12 15 17 17 18 21 22 25 31 39 42 44 45 49 53 54 55
13 11 12 6 5 7 4 9 10 9 11 21 33 38 38 39 41 43 46 51 54 55 51 50 45 41 35 27 20 14 7 4 7 4 4 13 19 18 18 19 22 30 37 40 42 43 49 53 55
14 4 3 3 5 5 6 1 12 14 10 9 21 32 33 34 35 40 43 43 43 41 43 42 40 39 39 36 34 28 23 21 16 10 8 9 13 19 22 25 29 32 35 34 36 39 44 50 56
6 7 13 9 5 3 15 14 9 11 12 14 24 31 30 29 31 35 36 35 37 35 35 33 31 32 32 33 32 29 27 26 21 22 21 19 17 16 16 18 21 24 29 34 36 40 43 48 53
8 10 6 6 4 10 7 6 11 15 1 32 36 36 30 27 28 29 29 29 28 25 23 21 19 19 21 21 21 24 25 25 26 26 25 23 24 25 27 28 29 28 28 30 34 37 38 44 53
10 15 9 12 6 7 8 11 6 8 27 45 40 34 27 23 20 19 19 18 17 13 13 11 12 15 18 21 23 24 23 26 30 30 29 28 28 31 31 32 32 34 36 35 33 35 39 44 47
8 8 6 10 4 5 8 2 2 8 12 28 35 29 23 19 11 4 6 7 9 8 8 11 13 12 12 17 21 24 25 26 28 30 35 38 36 32 29 28 33 39 39 40 40 39 39 42 46
9 11 6 4 3 11 9 10 9 15 17 13 20 30 26 19 14 10 8 7 5 4 4 6 10 15 18 18 18 22 26 27 29 33 36 41 45 46 44 44 46 48 46 45 46 47 46 45 48
2 5 3 6 10 10 4 10 5 20 28 26 34 34 32 25 21 19 16 10 8 1 5 6 6 5 7 11 16 19 23 30 31 35 39 43 48 51 54 55 55 57 58 57 54 52 52 54 55
5 13 13 11 11 7 4 17 4 16 34 43 43 35 31 31 28 28 21 15 11 7 4 4 5 9 12 14 17 21 25 31 36 41 44 46 50 51 56 58 61 67 69 71 71 73 67 65 65
Wind_Direction_850mb
336 306 311 65 55 64 297 289 153 67 4 172 310 58 181 233 164 213 192 235 157 168 180 187 194 198 200 203 204 202 201 202 201 201 206 206 202 203 206 214 229 239 253 242 237 32 75 100 104
344 356 54 72 82 69 286 273 160 208 189 108 87 98 10 14 148 205 166 269 234 164 189 190 197 202 204 207 208 208 211 211 211 210 218 221 214 220 228 238 252 261 250 224 227 268 255 242 217
13 27 39 87 108 161 178 228 208 279 147 116 42 267 293 205 210 190 264 237 244 199 188 199 202 205 209 213 215 216 217 216 216 219 211 215 210 214 231 248 259 265 268 252 252 261 264 257 240
266 38 58 78 213 250 186 206 209 146 136 147 100 347 296 251 246 317 301 280 234 225 209 200 206 210 211 214 218 221 222 220 213 210 226 234 236 235 240 245 250 262 266 252 256 262 264 261 250
32 51 50 43 282 279 298 146 124 64 292 222 189 264 275 241 235 164 307 316 272 233 223 211 210 212 216 219 220 220 223 223 212 213 219 230 241 247 251 249 248 253 259 259 265 271 269 259 241
61 60 56 343 287 292 304 299 106 38 10 9 287 294 286 250 214 219 199 305 291 252 237 227 219 219 220 221 222 223 223 223 227 219 219 230 246 253 261 250 236 246 248 256 267 269 264 244 224
96 80 187 227 265 321 262 38 123 162 22 93 138 279 291 278 260 257 253 299 287 257 246 238 231 226 225 227 226 226 227 229 229 229 232 248 251 256 255 247 233 243 249 255 253 244 235 218 217
77 96 47 268 312 325 353 335 334 337 313 155 212 247 290 325 308 280 264 273 282 275 261 249 241 235 232 227 228 230 230 231 232 233 237 242 253 258 264 277 260 252 256 259 251 243 224 221 223
164 60 229 237 47 295 336 5 341 329 295 293 266 281 298 299 303 283 274 285 281 276 278 263 249 243 239 236 233 230 230 232 234 234 234 238 244 252 259 268 275 266 263 262 254 243 229 229 231
106 117 227 203 160 269 293 272 309 313 305 293 294 302 303 301 308 310 285 293 290 280 287 283 261 251 245 241 238 235 232 232 232 231 232 237 240 252 258 262 266 269 266 260 250 239 233 235 239
170 190 216 266 260 286 299 302 284 268 292 296 304 315 309 299 295 291 289 287 286 287 272 278 273 260 253 247 242 238 233 233 236 232 233 239 241 249 254 257 263 270 266 261 255 242 238 240 243
168 247 245 268 289 299 286 295 300 261 277 306 312 317 321 304 295 295 295 298 291 285 283 274 271 260 255 255 249 242 237 236 239 241 240 238 238 244 250 256 262 266 270 264 257 247 241 243 247
212 283 271 268 285 287 283 267 272 281 292 301 316 344 14 5 337 311 297 302 284 268 270 272 263 269 260 257 259 250 241 239 241 241 242 242 247 244 250 257 259 262 266 265 261 253 247 246 247
245 303 293 290 281 283 260 285 327 284 306 310 314 345 345 352 340 304 283 288 288 275 272 267 252 267 267 259 262 265 255 248 245 245 247 245 244 246 248 257 265 263 264 265 261 257 249 248 248
317 315 315 281 274 225 183 315 228 301 303 294 310 341 348 348 323 338 340 306 285 275 268 256 244 255 270 260 261 266 269 258 254 254 256 251 255 248 253 256 260 270 270 267 260 256 251 246 246
324 29 326 273 138 181 149 249 272 296 297 296 329 6 47 47 41 16 349 10 7 282 262 248 230 230 257 255 252 260 265 264 258 254 256 253 258 257 250 259 258 281 275 268 260 258 256 253 251
346 230 212 306 255 126 193 252 267 289 297 297 345 79 71 78 63 40 6 356 4 357 294 218 209 209 209 228 240 245 253 259 259 255 258 255 254 258 252 259 264 272 275 270 267 264 262 260 258
215 214 239 232 267 30 256 249 261 279 298 316 158 105 87 78 63 56 48 32 25 203 188 195 201 210 200 210 227 240 247 246 243 252 259 265 264 264 262 264 269 267 270 271 270 269 267 267 267
176 214 240 258 257 225 258 277 290 341 264 115 117 109 97 84 77 71 66 64 71 109 122 118 150 158 177 194 213 227 242 243 242 241 249 259 265 269 271 272 270 267 272 274 277 275 271 268 268
238 247 259 272 260 190 292 292 40 26 42 102 112 99 94 90 82 76 73 71 68 70 73 77 85 105 180 216 220 220 225 226 230 238 243 255 261 268 273 275 275 273 273 275 275 275 273 271 268
220 202 235 234 344 295 330 293 184 60 77 79 86 93 89 85 80 75 72 69 69 66 64 65 67 72 79 86 108 174 203 209 217 226 239 249 254 255 265 269 273 273 273 273 276 277 278 278 274
277 208 228 187 113 228 44 278 304 148 84 68 88 91 91 89 82 76 70 65 59 55 52 52 54 56 57 55 62 77 91 58 44 14 268 265 276 279 273 257 263 274 275 274 274 274 273 275 274
230 99 131 169 172 74 295 299 259 132 149 131 109 108 103 93 85 76 69 65 63 57 49 44 41 43 44 46 50 53 58 54 41 16 320 304 295 290 290 285 279 273 270 275 277 272 268 269 272
111 51 37 48 101 282 215 180 263 188 183 148 142 131 119 107 96 85 79 72 63 56 49 45 39 39 37 33 33 31 32 37 36 40 28 17 2 345 329 315 304 298 292 289 282 270 268 268 267
87 70 309 335 0 231 139 145 254 321 345 155 152 142 129 117 105 97 83 66 53 42 36 27 24 31 37 36 38 38 35 30 23 20 17 6 9 9 4 355 348 335 318 306 298 293 284 272 270
173 165 165 222 215 268 328 239 290 11 90 129 137 135 133 127 112 90 55 48 35 39 28 22 21 16 22 23 27 28 22 22 25 21 13 5 6 3 355 353 348 339 335 333 328 311 302 292 281
186 176 170 106 351 283 247 62 52 74 82 129 141 147 154 151 139 70 28 17 26 36 49 59 50 59 38 28 20 13 14 12 10 4 1 355 349 346 348 344 337 330 328 327 326 329 325 315 304
151 167 81 8 171 241 272 264 207 187 179 172 170 182 179 186 213 239 253 279 316 352 33 57 59 37 34 32 21 14 4 359 357 351 346 342 339 337 336 332 330 329 325 319 316 314 315 316 315
130 196 177 170 155 180 252 257 219 175 180 183 196 198 201 216 227 237 246 265 291 261 107 94 72 53 15 355 348 342 341 338 343 336 335 332 329 330 330 329 326 321 318 318 318 313 310 306 304
216 191 168 195 223 240 169 263 336 182 175 178 195 213 225 233 226 225 230 236 248 225 176 112 44 18 6 358 354 344 336 334 332 330 330 325 322 324 322 318 316 314 313 312 312 311 309 307 304